SB KEPS @ AMSAT $ORB07342.O Orbital Elements 07342.OSCAR
HR AMSAT ORBITAL ELEMENTS FOR OSCAR SATELLITES FROM WA5QGD FORT WORTH,TX December 8, 2007 Send Subscribe/unsubscribe to KEPS at http://www.amsat.org/mailman/listinfo/keps BID: ORB07342.O TO ALL RADIO AMATEURS BT
Satellite: PO-63 Catalog number: 29712 Epoch time: 07342.49335013 Element set: 983 Inclination: 097.9031 deg RA of node: 039.0619 deg Eccentricity: 0.0013084 Arg of perigee: 285.3802 deg Mean anomaly: 074.5966 deg Mean motion: 14.79928448 rev/day Decay rate: 5.16e-06 rev/day^2 Epoch rev: 4911 Checksum: 325
Satellite: VO-52 Catalog number: 28650 Epoch time: 07342.38023839 Element set: 798 Inclination: 097.8155 deg RA of node: 049.0254 deg Eccentricity: 0.0028007 Arg of perigee: 047.8838 deg Mean anomaly: 312.4735 deg Mean motion: 14.81393287 rev/day Decay rate: 3.54e-06 rev/day^2 Epoch rev: 14020 Checksum: 318
Satellite: AO-40 Catalog number: 26609 Epoch time: 07339.52928811 Element set: 0977 Inclination: 007.0899 deg RA of node: 108.3144 deg Eccentricity: 0.7931918 Arg of perigee: 029.3281 deg Mean anomaly: 357.6125 deg Mean motion: 01.25583743 rev/day Decay rate: -9.9e-07 rev/day^2 Epoch rev: 03259 Checksum: 341
Satellite: SO-33 Catalog number: 25509 Epoch time: 07342.24746774 Element set: 81 Inclination: 031.4304 deg RA of node: 321.6177 deg Eccentricity: 0.0354834 Arg of perigee: 149.1309 deg Mean anomaly: 213.0695 deg Mean motion: 14.28188883 rev/day Decay rate: 2.15e-06 rev/day^2 Epoch rev: 47615 Checksum: 307
Satellite: FO-29 Catalog number: 24278 Epoch time: 07341.84498046 Element set: 652 Inclination: 098.5765 deg RA of node: 278.3511 deg Eccentricity: 0.0350909 Arg of perigee: 353.5956 deg Mean anomaly: 006.0756 deg Mean motion: 13.52935420 rev/day Decay rate: 3.0e-07 rev/day^2 Epoch rev: 55838 Checksum: 335
Satellite: RS-15 Catalog number: 23439 Epoch time: 07342.43949868 Element set: 79 Inclination: 064.8146 deg RA of node: 085.1212 deg Eccentricity: 0.0153679 Arg of perigee: 159.0958 deg Mean anomaly: 201.6338 deg Mean motion: 11.27552896 rev/day Decay rate: -3.9e-07 rev/day^2 Epoch rev: 53334 Checksum: 337
Satellite: UO-11 Catalog number: 14781 Epoch time: 07341.99371871 Element set: 539 Inclination: 098.1762 deg RA of node: 007.9238 deg Eccentricity: 0.0008987 Arg of perigee: 339.3615 deg Mean anomaly: 020.7217 deg Mean motion: 14.79600938 rev/day Decay rate: 3.39e-06 rev/day^2 Epoch rev: 27543 Checksum: 336
Satellite: AO-10 Catalog number: 14129 Epoch time: 07338.04898995 Element set: 449 Inclination: 025.9721 deg RA of node: 242.7356 deg Eccentricity: 0.6047754 Arg of perigee: 078.4945 deg Mean anomaly: 339.9606 deg Mean motion: 02.05869203 rev/day Decay rate: 2.6e-07 rev/day^2 Epoch rev: 18406 Checksum: 342
Satellite: AO-07 Catalog number: 07530 Epoch time: 07342.51864179 Element set: 47 Inclination: 101.4932 deg RA of node: 015.2514 deg Eccentricity: 0.0011846 Arg of perigee: 276.6465 deg Mean anomaly: 083.3262 deg Mean motion: 12.53572922 rev/day Decay rate: -2.8e-07 rev/day^2 Epoch rev: 51296 Checksum: 291
/EX SB KEPS @ AMSAT $ORB07342.D Orbital Elements 07342.MICROS
HR AMSAT ORBITAL ELEMENTS FOR THE MICROSATS FROM WA5QGD FORT WORTH,TX December 8, 2007 Send Subscribe/unsubscribe to KEPS at http://www.amsat.org/mailman/listinfo/keps BID: ORB07342.D TO ALL RADIO AMATEURS BT
Satellite: LIBERT Catalog number: 31129 Epoch time: 07342.18608397 Element set: 571 Inclination: 098.0655 deg RA of node: 048.5284 deg Eccentricity: 0.0101789 Arg of perigee: 207.9059 deg Mean anomaly: 151.6629 deg Mean motion: 14.51982024 rev/day Decay rate: 3.37e-06 rev/day^2 Epoch rev: 3405 Checksum: 309
Satellite: CP3 Catalog number: 31128 Epoch time: 07341.71791219 Element set: 199 Inclination: 098.0656 deg RA of node: 048.0555 deg Eccentricity: 0.0102614 Arg of perigee: 209.3895 deg Mean anomaly: 150.1511 deg Mean motion: 14.51890936 rev/day Decay rate: -4.8e-07 rev/day^2 Epoch rev: 3400 Checksum: 290
Satellite: CP4 Catalog number: 31122 Epoch time: 07342.10213362 Element set: 204 Inclination: 098.0665 deg RA of node: 049.5981 deg Eccentricity: 0.0085486 Arg of perigee: 204.8831 deg Mean anomaly: 154.8217 deg Mean motion: 14.55059039 rev/day Decay rate: 5.49e-06 rev/day^2 Epoch rev: 3414 Checksum: 288
Satellite: NO-61 Catalog number: 29664 Epoch time: 07342.20265905 Element set: 693 Inclination: 051.6237 deg RA of node: 244.0721 deg Eccentricity: 0.0001150 Arg of perigee: 302.5260 deg Mean anomaly: 057.5656 deg Mean motion: 16.17044788 rev/day Decay rate: 2.42895e-03 rev/day^2 Epoch rev: 5601 Checksum: 295
Satellite: HO-59 Catalog number: 29484 Epoch time: 07342.16956974 Element set: 926 Inclination: 098.2619 deg RA of node: 060.0483 deg Eccentricity: 0.0155705 Arg of perigee: 355.8540 deg Mean anomaly: 004.1442 deg Mean motion: 15.66161285 rev/day Decay rate: 4.6381e-04 rev/day^2 Epoch rev: 6816 Checksum: 337
Satellite: CO-56 Catalog number: 28941 Epoch time: 07342.30095895 Element set: 690 Inclination: 098.1131 deg RA of node: 063.4845 deg Eccentricity: 0.0201026 Arg of perigee: 013.5530 deg Mean anomaly: 347.1089 deg Mean motion: 15.46872729 rev/day Decay rate: 1.9450e-04 rev/day^2 Epoch rev: 10028 Checksum: 307
Satellite: AO-51 Catalog number: 28375 Epoch time: 07342.14149810 Element set: 976 Inclination: 098.0919 deg RA of node: 012.3137 deg Eccentricity: 0.0085119 Arg of perigee: 015.6540 deg Mean anomaly: 344.7250 deg Mean motion: 14.40589631 rev/day Decay rate: 2.1e-07 rev/day^2 Epoch rev: 18075 Checksum: 296
Satellite: CO-57 Catalog number: 27848 Epoch time: 07341.56045895 Element set: 139 Inclination: 098.7184 deg RA of node: 346.6360 deg Eccentricity: 0.0009676 Arg of perigee: 319.5372 deg Mean anomaly: 040.5104 deg Mean motion: 14.20361448 rev/day Decay rate: 4.3e-07 rev/day^2 Epoch rev: 23006 Checksum: 310
Satellite: CO-55 Catalog number: 27844 Epoch time: 07342.22186524 Element set: 183 Inclination: 098.7193 deg RA of node: 348.1483 deg Eccentricity: 0.0009480 Arg of perigee: 314.8002 deg Mean anomaly: 045.2413 deg Mean motion: 14.20547316 rev/day Decay rate: 5.4e-07 rev/day^2 Epoch rev: 23018 Checksum: 286
Satellite: SO-50 Catalog number: 27607 Epoch time: 07342.26579590 Element set: 474 Inclination: 064.5587 deg RA of node: 276.4668 deg Eccentricity: 0.0073958 Arg of perigee: 318.1630 deg Mean anomaly: 041.3806 deg Mean motion: 14.71307764 rev/day Decay rate: -9.5e-07 rev/day^2 Epoch rev: 26673 Checksum: 341
Satellite: NO-44 Catalog number: 26931 Epoch time: 07341.74299942 Element set: 750 Inclination: 067.0527 deg RA of node: 060.4095 deg Eccentricity: 0.0005085 Arg of perigee: 254.1738 deg Mean anomaly: 105.8807 deg Mean motion: 14.29504684 rev/day Decay rate: 5.9e-07 rev/day^2 Epoch rev: 32290 Checksum: 314
Satellite: MO-46 Catalog number: 26548 Epoch time: 07341.33540214 Element set: 966 Inclination: 064.5592 deg RA of node: 006.9839 deg Eccentricity: 0.0006364 Arg of perigee: 349.8263 deg Mean anomaly: 010.2699 deg Mean motion: 14.83204241 rev/day Decay rate: 4.0e-08 rev/day^2 Epoch rev: 38921 Checksum: 308
Satellite: GO-32 Catalog number: 25397 Epoch time: 07342.10139289 Element set: 470 Inclination: 098.3927 deg RA of node: 021.4962 deg Eccentricity: 0.0002158 Arg of perigee: 079.8706 deg Mean anomaly: 280.2732 deg Mean motion: 14.23134242 rev/day Decay rate: -1.14e-06 rev/day^2 Epoch rev: 48889 Checksum: 310
Satellite: PO-28 Catalog number: 22829 Epoch time: 07341.91755873 Element set: 819 Inclination: 098.3375 deg RA of node: 306.5805 deg Eccentricity: 0.0010762 Arg of perigee: 079.3118 deg Mean anomaly: 280.9263 deg Mean motion: 14.30174330 rev/day Decay rate: 2.0e-07 rev/day^2 Epoch rev: 74064 Checksum: 308
Satellite: IO-26 Catalog number: 22826 Epoch time: 07341.76675590 Element set: 544 Inclination: 098.3504 deg RA of node: 305.2976 deg Eccentricity: 0.0009807 Arg of perigee: 103.6521 deg Mean anomaly: 256.5746 deg Mean motion: 14.29471996 rev/day Decay rate: 2.0e-07 rev/day^2 Epoch rev: 74037 Checksum: 325
Satellite: AO-27 Catalog number: 22825 Epoch time: 07342.37943165 Element set: 845 Inclination: 098.3575 deg RA of node: 304.8885 deg Eccentricity: 0.0009341 Arg of perigee: 105.6905 deg Mean anomaly: 254.5311 deg Mean motion: 14.29224035 rev/day Decay rate: -1.24e-06 rev/day^2 Epoch rev: 74037 Checksum: 307
Satellite: LO-19 Catalog number: 20442 Epoch time: 07341.76183275 Element set: 121 Inclination: 098.1883 deg RA of node: 335.9334 deg Eccentricity: 0.0012513 Arg of perigee: 032.6295 deg Mean anomaly: 327.5645 deg Mean motion: 14.32017229 rev/day Decay rate: -2.8e-07 rev/day^2 Epoch rev: 93353 Checksum: 294
Satellite: AO-16 Catalog number: 20439 Epoch time: 07340.56437229 Element set: 0197 Inclination: 098.2109 deg RA of node: 325.7519 deg Eccentricity: 0.0011781 Arg of perigee: 036.8324 deg Mean anomaly: 323.3678 deg Mean motion: 14.31777705 rev/day Decay rate: 1.8e-07 rev/day^2 Epoch rev: 93321 Checksum: 311
/EX SB KEPS @ AMSAT $ORB07342.W Orbital Elements 07342.WEATHER
HR AMSAT ORBITAL ELEMENTS FOR WEATHER SATELLITES FROM WA5QGD FORT WORTH,TX December 8, 2007 Send Subscribe/unsubscribe to KEPS at http://www.amsat.org/mailman/listinfo/keps BID: ORB07342.W TO ALL RADIO AMATEURS BT
Satellite: NOAA-18 Catalog number: 28654 Epoch time: 07342.39960606 Element set: 226 Inclination: 098.8482 deg RA of node: 280.8975 deg Eccentricity: 0.0014972 Arg of perigee: 133.6996 deg Mean anomaly: 226.5431 deg Mean motion: 14.11117697 rev/day Decay rate: 2.51e-06 rev/day^2 Epoch rev: 13142 Checksum: 327
Satellite: NOAA-17 Catalog number: 27453 Epoch time: 07342.43479420 Element set: 710 Inclination: 098.5632 deg RA of node: 047.3885 deg Eccentricity: 0.0010986 Arg of perigee: 309.7444 deg Mean anomaly: 050.2779 deg Mean motion: 14.23931269 rev/day Decay rate: 1.77e-06 rev/day^2 Epoch rev: 28351 Checksum: 323
